Location: Chuathbaluk
(61.5726°N, 159.2454°W)
Time: 05:08:34
(UTC+00:00)

Transit 2A - Pass Details

Date: 02 December 2020
Orbit: 599 x 960 km, 66.7° (Epoch: 26 January)

Event Time Altitude Azimuth Distance (km) Brightness Sun altitude
Rises 07:12:19 0° 272° (W) 3,547 10.2 -38.5°
Reaches altitude 10° 07:15:00 10° 277° (W) 2,562 9.3 -38.7°
Enters shadow 07:17:55 28° 291° (WNW) 1,574 8.0 -39.1°
Maximum altitude 07:20:48 52° 353° (N) 1,036 - -39.4°
Drops below altitude 10° 07:26:03 10° 70° (ENE) 2,328 - -39.9°
Sets 07:28:24 0° 76° (ENE) 3,197 - -40.1°
